TimeCST,TemperatureF,Dew PointF,Humidity,Sea Level PressureIn,VisibilityMPH,Wind Direction,Wind SpeedMPH,Gust SpeedMPH,PrecipitationIn,Events,Conditions,WindDirDegrees,DateUTC
12:53 AM,17.1,10.9,77,30.33,10.0,North,6.9,-,N/A,,Clear,350,2013-02-16 06:53:00
1:53 AM,16.0,10.9,81,30.33,10.0,NNW,5.8,-,N/A,,Clear,330,2013-02-16 07:53:00
2:53 AM,15.1,10.9,84,30.32,10.0,NNW,4.6,-,N/A,,Clear,340,2013-02-16 08:53:00
3:53 AM,12.9,9.0,84,30.31,10.0,NNW,4.6,-,N/A,,Clear,340,2013-02-16 09:53:00
4:53 AM,12.9,9.0,84,30.31,10.0,West,4.6,-,N/A,,Clear,280,2013-02-16 10:53:00
5:53 AM,12.9,9.0,84,30.30,10.0,West,3.5,-,N/A,,Clear,270,2013-02-16 11:53:00
6:53 AM,12.9,9.0,84,30.31,10.0,WSW,3.5,-,N/A,,Clear,240,2013-02-16 12:53:00
7:53 AM,15.1,12.0,88,30.32,10.0,West,4.6,-,N/A,,Clear,260,2013-02-16 13:53:00
8:53 AM,19.0,12.9,77,30.30,10.0,WSW,4.6,-,N/A,,Clear,250,2013-02-16 14:53:00
9:53 AM,21.9,15.1,75,30.28,10.0,WSW,4.6,-,N/A,,Clear,240,2013-02-16 15:53:00
10:53 AM,26.1,16.0,66,30.27,10.0,WSW,8.1,-,N/A,,Partly Cloudy,250,2013-02-16 16:53:00
11:53 AM,28.9,15.1,56,30.24,10.0,SW,9.2,-,N/A,,Partly Cloudy,230,2013-02-16 17:53:00
12:53 PM,32.0,15.1,50,30.19,10.0,SW,6.9,16.1,N/A,,Clear,230,2013-02-16 18:53:00
1:53 PM,34.0,15.1,46,30.17,10.0,WSW,12.7,16.1,N/A,,Clear,250,2013-02-16 19:53:00
2:53 PM,35.1,12.9,40,30.15,10.0,WSW,5.8,-,N/A,,Clear,250,2013-02-16 20:53:00
3:53 PM,35.1,12.9,40,30.15,10.0,WSW,9.2,-,N/A,,Overcast,250,2013-02-16 21:53:00
4:53 PM,33.1,12.9,43,30.15,10.0,WSW,10.4,-,N/A,,Overcast,240,2013-02-16 22:53:00
5:53 PM,32.0,14.0,48,30.15,10.0,SSW,9.2,-,N/A,,Overcast,210,2013-02-16 23:53:00
6:53 PM,30.9,16.0,54,30.16,10.0,SW,5.8,-,N/A,,Overcast,220,2013-02-17 00:53:00
7:53 PM,30.9,15.1,52,30.15,10.0,SW,6.9,-,N/A,,Overcast,220,2013-02-17 01:53:00
9:53 PM,30.0,16.0,56,30.14,10.0,South,5.8,-,N/A,,Overcast,180,2013-02-17 03:53:00
10:53 PM,30.0,17.1,59,30.13,10.0,SSE,3.5,-,N/A,,Overcast,160,2013-02-17 04:53:00
11:53 PM,28.9,17.1,61,30.11,10.0,South,5.8,-,N/A,,Overcast,170,2013-02-17 05:53:00